Regional Weather Roundup
Issued by NWS

Home | Current Version | Previous Version | Graphics & Text | Print | Product List | Glossary On
Versions: 1 2 3 4 5 6 7 8 9 10 11 12 13 14 15 16 17 18 19 20 21 22 23 24 25 26 27 28 29 30 31 32 33 34 35 36 37 38 39 40 41 42 43 44 45 46 47 48 49 50
000
ASUS45 KTFX 020404
RWRMT
MONTANA HOURLY WEATHER ROUNDUP
NATIONAL WEATHER SERVICE GREAT FALLS MT
904 PM MST SUN MAR 1 2015

NOTE: "FAIR" INDICATES FEW OR NO CLOUDS BELOW 12000 FEET WITH NO
SIGNIFICANT WEATHER AND/OR OBSTRUCTIONS TO VISIBILITY.

* THESE STATIONS ARE NOT UNDER NWS QUALITY CONTROL. THEY DO NOT
   REPORT WEATHER SUCH AS PRECIPITATION OR FOG.

MTZ001>007-043-020500-
WEST OF THE DIVIDE
CITY           SKY/WX    TMP DP  RH WIND       PRES   REMARKS
KALISPELL      FAIR      21  16  81 CALM      29.98F
MISSOULA       PTCLDY    28  12  51 N5        29.98F WCI  22
BUTTE          PTCLDY    21   9  60 SE6       29.94F WCI  13
MULLAN PASS    CLOUDY    23   3  42 S5        29.87F WCI  16
* ANACONDA     PTCLDY    23   9  55 SW6        N/A   WCI  16
* ESSEX        N/A       18   9  68 SE1        N/A
* LINCOLN      N/A       23   7  50 N/A        N/A
* LOOKOUT PASS N/A       25  11  55 E1         N/A
* POLSON       N/A       24   5  44 SE1        N/A
* RONAN APT    PTCLDY    27  19  72 N/A        N/A
* SEELEY LAKE  N/A       22   8  55 N2         N/A
* THOMP F APT  PTCLDY    19  -2  39 N3         N/A
$$

MTZ008-052>055-020500-
SOUTHWEST MONTANA
CITY           SKY/WX    TMP DP  RH WIND       PRES   REMARKS
BOZEMAN        PTCLDY    19  10  68 S7        29.99F WCI  10
DILLON         CLEAR     19   5  54 S6        29.95F WCI  11
* W YELLOWSTON PTCLDY    11  -2  55 N/A        N/A
* THREE FORKS  PTCLDY    21   9  60 N/A        N/A
* BOULDER HILL N/A       20   0  41 S12        N/A   WCI   8
* MONIDA PASS  N/A       16  -3  42 SE3        N/A
* RAYNOLDS PAS N/A       12  -2  53 S6         N/A   WCI   2
* WHITEHALL    N/A       25   5  42 NE7        N/A   WCI  17
* WISE RIVER   N/A       19   3  49 S5         N/A   WCI  12
$$

MTZ009>010-012-014-046-048-049-054-020500-
EAST SLOPES AND CENTRAL MONTANA
CITY           SKY/WX    TMP DP  RH WIND       PRES   REMARKS
CUT BANK       MOCLDY    27  14  58 SW6       29.86F WCI  20
GREAT FALLS    MOCLDY    30  10  43 S17       29.91F WCI  18
HELENA         MOCLDY    27  14  58 W3        29.97F
* DEARBORN     N/A       32  10  40 SW8G13     N/A   WCI  25
* EAST GLACIER N/A       27   1  32 W19G35     N/A   WCI  14
* MONARCH      N/A       23  -3  32 S15G21     N/A   WCI  10
* PENDROY      N/A       25  18  75 SW4        N/A
* ROGERS PASS  N/A       22   4  46 E3G8       N/A
* SWEET GRASS  N/A       25  14  63 S12        N/A   WCI  14
$$

MTZ011-013-016-021-035-040-045-047-050-051-020500-
NORTH CENTRAL MONTANA
CITY           SKY/WX    TMP DP  RH WIND       PRES   REMARKS
HAVRE          PTCLDY    21  12  68 NE7       29.98F WCI  12
LEWISTOWN      CLEAR     19   7  59 SE10      29.95F WCI   8
* N BAR RANCH  CLEAR     23   3  42 SW15G24   29.98F WCI  10
* CHESTER      N/A       26  15  63 SE9G16     N/A   WCI  17
* DENTON       N/A       25   8  48 S13G18     N/A   WCI  13
* GEYSER       N/A       15   9  77 SW8        N/A   WCI   4
* JUDITH GAP   N/A       15   4  61 SE10G15    N/A   WCI   3
* LOMA         N/A       26  13  58 NE10G15    N/A   WCI  16
$$

MTZ017>020-022>027-061-062-020500-
NORTHEAST MONTANA
CITY           SKY/WX    TMP DP  RH WIND       PRES   REMARKS
GLASGOW        CLEAR     16   9  74 SE13      30.15F WCI   2
GLENDIVE       CLEAR     16   5  62 S6        30.23F WCI   7
JORDAN         CLEAR     16   9  74 CALM      30.13F
SIDNEY         CLEAR     14   9  80 CALM      30.28F
WOLF POINT     CLEAR     16   7  67 CALM      30.21F
* BEAVER HILL  N/A       12   5  73 SE10       N/A   WCI  -1
* CIRCLE       N/A       15   8  74 N/A        N/A
* LINDSAY DVD  N/A       10   5  80 SE4        N/A
* NAVAJO       N/A       11   5  77 S7         N/A
* SACO         N/A       20   9  62 E12        N/A   WCI   8
$$

MTZ028>042-056>058-020500-
SOUTHCENTRAL AND SOUTHEAST MONTANA
CITY           SKY/WX    TMP DP  RH WIND       PRES   REMARKS
BAKER          CLEAR      7   1  76 SE6       30.23F WCI  -4
BILLINGS       FAIR      23   3  42 S8        30.07F WCI  14
LIVINGSTON     PTCLDY    19   9  65 S5        30.00F WCI  12
MILES CITY     CLEAR     16   9  74 SE9       30.20F WCI   5
* LAUREL APT   CLEAR     21   1  41 N/A        N/A
* ROUNDUP APT  CLEAR     25   0  33 N/A        N/A
* ALZADA       N/A        7   2  80 E4         N/A
* HYSHAM       N/A       21   5  50 SE5G16     N/A   WCI  14
* LAME DEER    N/A       16   6  64 SE8        N/A   WCI   5
* REED POINT   N/A       20  10  65 E1         N/A
* ROSCOE HILL  N/A       16  -4  40 SW3        N/A
$$

REGIONAL REPORTS...DAKOTAS
CITY           SKY/WX    TMP DP  RH WIND       PRES   REMARKS
WILLISTON      PTCLDY     9   3  76 SE3       30.27S
DICKINSON      PTCLDY     7   3  83 S8        30.26S WCI  -6
BEACH          CLEAR      7   5  91 S6        30.25F WCI  -4
CROSBY         CLEAR      3   0  87 S10       30.26F WCI -12
WATFORD CITY   CLEAR      7   3  83 CALM      30.26S
BISMARCK       PTCLDY    12   7  80 SW3       30.37R
GRAND FORKS    PTCLDY     9   1  70 SW9       30.34R WCI  -4
FARGO          PTCLDY    10   3  73 W7        30.38R WCI  -1
BUFFALO SD     CLEAR     16   7  67 S7        30.19F WCI   6
RAPID CITY     PTCLDY     7   3  83 CALM      30.31S
$$

REGIONAL REPORTS...WYOMING/IDAHO/WASHINGTON
CITY           SKY/WX    TMP DP  RH WIND       PRES   REMARKS
GILLETTE       PTCLDY    12   5  73 S7        30.15F WCI   1
SHERIDAN       PTCLDY    10   3  73 S5        30.09F WCI   1
CODY           PTCLDY    18  12  77 S8        30.04F WCI   8
YELLOWSTONE LA PTCLDY     0  -8  68 CALM      30.00S
SALMON         CLEAR     25  12  58 CALM      29.97S
MULLAN PASS    CLOUDY    23   3  42 S5        29.87S WCI  16
SAND POINT     MOCLDY    30  19  64 CALM      29.98F
SPOKANE        CLOUDY    36  16  44 S3        29.95F

$$




USA.gov is the U.S. government's official web portal to all federal, state and local government web resources and services.